"Pseudo-MPEC" for C1FZHE5

Created 2026 Aug 26 0:35:07 UT using Find_Orb

Click here for an explanation of pseudo-MPECs

 
 Astrometry: 
     C1FZHE5*1C2026 08 23.48082723 45 54.914+30 41 52.26   ~8OFo 21.72GVNEOCPV00
     C1FZHE5 1C2026 08 23.48678323 45 55.915+30 41 21.30   ~8OFo 22.35GVNEOCPV00
     C1FZHE5 1C2026 08 23.49277823 45 56.959+30 40 50.16   ~8OFo 21.86GVNEOCPV00
     C1FZHE5 1C2026 08 23.49871423 45 57.946+30 40 20.06   ~8OFo 21.45GVNEOCPV00
     C1FZHE5 KC2026 08 24.32865023 48 39.42 +29 34 06.0    ~8OFo 22.0 GVNEOCPH21
     C1FZHE5 KC2026 08 24.33153723 48 39.83 +29 33 52.7    ~8OFo 21.9 GVNEOCPH21
     C1FZHE5 KC2026 08 24.33442523 48 40.22 +29 33 39.1    ~8OFo 21.8 GVNEOCPH21
     C1FZHE5 KC2026 08 25.28446423 51 18.73 +28 23 58.6    ~8P8K 22.2 GVNEOCPH21
     C1FZHE5 KC2026 08 25.28735223 51 19.07 +28 23 46.6    ~8P8K 21.9 GVNEOCPH21
     C1FZHE5 KC2026 08 25.29052923 51 19.44 +28 23 33.4    ~8P8K 21.7 GVNEOCPH21
     C1FZHE5 DC2026 08 25.33718 23 51 27.38 +28 20 28.8    ~8P9K 21.9 GVNEOCP695
     C1FZHE5 DC2026 08 25.34604 23 51 28.39 +28 19 52.0    ~8P9K 22.5 GVNEOCP695
     C1FZHE5 DC2026 08 25.35491 23 51 29.40 +28 19 15.6    ~8P9K 22.1 GVNEOCP695

Station data:
(695) Kitt Peak  (N31.958395 W111.594670)  US/Arizona. Measurer S. Deen.
   2.3-m f/9 reflector + CCD.
(H21) Astronomical Research Observatory, Westfield  (N39.483054 W87.968270)
   US/Illinois.  Observer R. Holmes. Measurers S. Foglia, L. Buzzi, T.
   Linder, R. Holmes. 0.40-m f/5.32 astrograph + CCD.
(V00) Kitt Peak-Bok  (N31.963125 W111.600190)  US/Arizona. Measurers T.
   Beuden, V. F. Carvajal, D. Fay, J. B. Fazekas, D. C. Fuls, A. R. Gibbs, A.
   D. Grauer, H. Gröller, J. K. Hogan, R. A. Kowalski, S. M. Larson, G. J.
   Leonard, D. Rankin, R. L. Seaman, F. C. Shelly, K. W. Wierzchoś. 2.25-m
   reflector + 4x4K mosaic CCD.

Orbital elements:  C1FZHE5
   Perihelion 2026 Jul 24.659023 +/- 0.039 TT = 15:48:59.6 (JD 2461246.159023)
Epoch 2026 Aug 25.0 TT = JDT 2461277.5   Earth MOID: 0.0132   Ma: 0.0701
M   8.345692622 +/- 0.39            (J2000 ecliptic)             AutoNEOCP
n   0.266286935 +/- 0.0123          Peri.   40.294807 +/- 0.19
a   2.392780216 +/- 0.0736          Node   256.635403 +/- 0.21
e   0.58452925 +/- 0.0129           Incl.    2.224610 +/- 0.037
P   3.70130                H 25.71  G  0.15   U  9.8
q 0.994130181 +/- 0.000373    Q 3.791430252 +/- 0.148
From 13 observations 2026 Aug. 23-25 (45.0 hr); mean residual 0".15
Residuals in arcseconds: 
260823 V00  .19-  .04+    260824 H21  .16+  .12+    260825 695  .04+  .06-    
260823 V00  .17-  .15-    260824 H21  .01-  .11-    260825 695  .05+  .22-    
260823 V00  .26+  .28-    260825 H21  .11-  .02-    260825 695  .12+  .16+    
260823 V00  .00   .35+    260825 H21  .12-  .03+    
260824 H21  .07+  .08+    260825 H21  .18-  .11+    

Ephemerides (geocentric):
Date (UTC) HH   RA             Dec           delta  r     elong  mag " sig PA
---- --------  ------------   ------------  ------ ------ -----  --- --------
2026 08 26 01  23 53 07.533   +27 32 51.85  .09443 1.0799 135.4 22.4 .636  73
2026 08 26 02  23 53 13.224   +27 30 07.88  .09464 1.0801 135.5 22.4 .660  71
2026 08 26 03  23 53 18.881   +27 27 24.49  .09484 1.0803 135.5 22.4 .684  69
2026 08 26 04  23 53 24.503   +27 24 41.68  .09505 1.0805 135.6 22.4 .709  68
2026 08 26 05  23 53 30.090   +27 21 59.45  .09525 1.0808 135.6 22.4 .734  66
2026 08 26 06  23 53 35.644   +27 19 17.78  .09546 1.0810 135.7 22.4 .760  64
2026 08 26 07  23 53 41.163   +27 16 36.69  .09566 1.0812 135.8 22.4 .787  63
2026 08 26 08  23 53 46.649   +27 13 56.16  .09587 1.0814 135.8 22.4 .814  62
2026 08 26 09  23 53 52.102   +27 11 16.19  .09607 1.0816 135.9 22.4 .841  60
2026 08 26 10  23 53 57.522   +27 08 36.78  .09628 1.0818 135.9 22.4 .869  59
2026 08 26 11  23 54 02.908   +27 05 57.92  .09648 1.0820 136.0 22.4 .898  58
2026 08 26 12  23 54 08.262   +27 03 19.62  .09669 1.0822 136.0 22.4 .927  56
2026 08 26 13  23 54 13.583   +27 00 41.86  .09689 1.0824 136.1 22.4 .957  55
2026 08 26 14  23 54 18.872   +26 58 04.65  .09710 1.0826 136.1 22.4 .988  54
2026 08 26 15  23 54 24.129   +26 55 27.99  .09731 1.0828 136.2 22.4 1.02  53
2026 08 26 16  23 54 29.354   +26 52 51.86  .09751 1.0831 136.3 22.4 1.05  52
2026 08 26 17  23 54 34.548   +26 50 16.27  .09772 1.0833 136.3 22.4 1.08  51
2026 08 26 18  23 54 39.710   +26 47 41.21  .09792 1.0835 136.4 22.4 1.11  50
2026 08 26 19  23 54 44.841   +26 45 06.68  .09813 1.0837 136.4 22.4 1.15  49
2026 08 26 20  23 54 49.941   +26 42 32.68  .09834 1.0839 136.5 22.4 1.18  48
2026 08 26 21  23 54 55.010   +26 39 59.20  .09854 1.0841 136.5 22.4 1.21  47
2026 08 26 22  23 55 00.049   +26 37 26.24  .09875 1.0843 136.6 22.4 1.25  46
2026 08 26 23  23 55 05.057   +26 34 53.80  .09896 1.0845 136.7 22.4 1.28  45
2026 08 27 00  23 55 10.035   +26 32 21.87  .09916 1.0847 136.7 22.4 1.32  45
2026 08 27 01  23 55 14.984   +26 29 50.46  .09937 1.0849 136.8 22.4 1.35  44
2026 08 27 02  23 55 19.902   +26 27 19.55  .09957 1.0852 136.8 22.4 1.39  43
2026 08 27 03  23 55 24.791   +26 24 49.15  .09978 1.0854 136.9 22.5 1.43  42
2026 08 27 04  23 55 29.650   +26 22 19.26  .09999 1.0856 136.9 22.5 1.46  42
2026 08 27 05  23 55 34.481   +26 19 49.86  .10020 1.0858 137.0 22.5 1.50  41
2026 08 27 06  23 55 39.282   +26 17 20.96  .10040 1.0860 137.0 22.5 1.54  40
2026 08 27 07  23 55 44.055   +26 14 52.55  .10061 1.0862 137.1 22.5 1.58  40
2026 08 27 08  23 55 48.799   +26 12 24.64  .10082 1.0864 137.2 22.5 1.62  39
2026 08 27 09  23 55 53.515   +26 09 57.22  .10102 1.0866 137.2 22.5 1.66  38
2026 08 27 10  23 55 58.202   +26 07 30.28  .10123 1.0869 137.3 22.5 1.70  38
2026 08 27 11  23 56 02.861   +26 05 03.82  .10144 1.0871 137.3 22.5 1.74  37
2026 08 27 12  23 56 07.493   +26 02 37.84  .10165 1.0873 137.4 22.5 1.78  37
2026 08 27 13  23 56 12.097   +26 00 12.35  .10186 1.0875 137.4 22.5 1.82  36
2026 08 27 14  23 56 16.673   +25 57 47.32  .10206 1.0877 137.5 22.5 1.86  36
2026 08 27 15  23 56 21.222   +25 55 22.77  .10227 1.0879 137.5 22.5 1.90  35
2026 08 27 16  23 56 25.744   +25 52 58.69  .10248 1.0881 137.6 22.5 1.94  35
2026 08 27 17  23 56 30.239   +25 50 35.08  .10269 1.0884 137.7 22.5 1.99  34
2026 08 27 18  23 56 34.707   +25 48 11.93  .10290 1.0886 137.7 22.5 2.03  34
2026 08 27 19  23 56 39.148   +25 45 49.24  .10310 1.0888 137.8 22.5 2.07  33
2026 08 27 20  23 56 43.563   +25 43 27.01  .10331 1.0890 137.8 22.5 2.12  33
2026 08 27 21  23 56 47.952   +25 41 05.24  .10352 1.0892 137.9 22.5 2.16  32
2026 08 27 22  23 56 52.314   +25 38 43.92  .10373 1.0894 137.9 22.5 2.21  32
2026 08 27 23  23 56 56.651   +25 36 23.05  .10394 1.0897 138.0 22.5 2.25  32
2026 08 28 00  23 57 00.962   +25 34 02.63  .10415 1.0899 138.0 22.5 2.30  31